User: anonymous   Login
Location: Caltech
(34.1382°N, 118.1253°W)
Time: 05:54:15
(UTC-08:00)
Language:

Cosmos 1508 Rocket - Orbit

View from above orbital plane
View from above orbital plane
View from above satellite
View from above satellite

Ground track
Ground track

The orbit data is extracted from the following two-line orbital elements,

1 14484U 83111B   15058.59704006  .00070282  65415-7  56574-3 0  9992
2 14484 082.8278 077.9537 0137541 065.0211 036.9875 15.59127953611937
Epoch (UTC): 27 February 2015 14:19:44
Eccentricity: 0.0137541
inclination: 82.8278°
perigee height: 297 km
apogee height: 483 km
right ascension of ascending node: 77.9537°
argument of perigee: 65.0211°
revolutions per day: 15.59127953
mean anomaly at epoch: 36.9875°
orbit number at epoch: 61193

The dashed part of the orbit path shows where the satellite is in the earth's shadow,  

DLR